Harlan, KY

7:35 AM EDT on March 24, 2017 (GMT -0400)
Harlan

Weather History for KI35 - November, 2012

Change the Weather History Date:

Wednesday, November 7, 2012

  Actual Average (KLOZ) Record (KLOZ)
Temperature  
Mean Temperature 40 °F -  
Max Temperature 44 °F 57 °F 75 °F (1996)
Min Temperature 37 °F 36 °F 20 °F (1960)
Degree Days  
Heating Degree Days 24    
Moisture  
Dew Point 39 °F    
Average Humidity 90    
Maximum Humidity 100    
Minimum Humidity 76    
Precipitation  
Precipitation 0.00 in - - ()
Sea Level Pressure  
Sea Level Pressure 29.94 in    
Wind  
Wind Speed 1 mph ()    
Max Wind Speed 7 mph    
Max Gust Speed -    
Visibility 6.8 miles    
Events      
Averages and records for this station are not official NWS values.
T = Trace of Precipitation, MM = Missing Value Source: Averaged Metar Reports

Daily Weather History Graph

Daily Weather History Graph

Search for Another Location

Airport or City:

Trip Planner

Search our weather history database for the weather conditions in past years. The results will help you decide how hot, cold, wet, or windy it might be!

Date:

Astronomy

Nov. 07, 2012 Rise Set
Actual Time 7:03 AM EST 5:29 PM EST
Civil Twilight 6:36 AM EST 5:57 PM EST
Nautical Twilight 6:05 AM EST 6:28 PM EST
Astronomical Twilight 5:35 AM EST 6:58 PM EST
Moon 12:06 AM EST (11/7) 1:29 PM EST (11/7)
Length of Visible Light 11h 20m
Length of Day
10h 26m
Last Quarter, 43% of the Moon is Illuminated
Nov 7
Last Quarter
Nov 13
New
Nov 20
First Quarter
Nov 28
Full
Dec 6
Last Quarter

Hourly Weather History & Observations

Time (EST) Temp. Windchill Dew Point Humidity Pressure Visibility Wind Dir Wind Speed Gust Speed Precip Events Conditions
12:15 AM 42.8 °F 41.1 °F 39.2 °F 87% 29.90 in 7.0 mi ENE 3.5 mph - N/A   Overcast
12:35 AM 42.8 °F - 39.2 °F 87% 29.90 in 10.0 mi Calm Calm - N/A   Overcast
12:55 AM 42.8 °F - 39.2 °F 87% 29.90 in 10.0 mi Calm Calm - N/A   Overcast
1:15 AM 42.8 °F - 41.0 °F 93% 29.89 in 7.0 mi Calm Calm - N/A   Overcast
1:35 AM 42.8 °F - 39.2 °F 87% 29.88 in 10.0 mi Calm Calm - N/A   Overcast
1:55 AM 41.0 °F - 41.0 °F 100% 29.88 in 3.0 mi Calm Calm - N/A   Overcast
2:15 AM 41.0 °F - 41.0 °F 100% 29.88 in 5.0 mi Calm Calm - N/A   Overcast
2:35 AM 41.0 °F - 41.0 °F 100% 29.88 in 2.0 mi Calm Calm - N/A   Overcast
2:55 AM 41.0 °F - 41.0 °F 100% 29.87 in 0.8 mi Calm Calm - N/A   Overcast
3:15 AM 41.0 °F - 41.0 °F 100% 29.87 in 1.0 mi Calm Calm - N/A   Overcast
3:55 AM 41.0 °F - 39.2 °F 93% 29.87 in 4.0 mi Calm Calm - N/A   Overcast
4:15 AM 41.0 °F - 41.0 °F 100% 29.87 in 3.0 mi Calm Calm - N/A   Overcast
4:35 AM 41.0 °F - 39.2 °F 93% 29.86 in 4.0 mi Calm Calm - N/A   Overcast
4:55 AM 41.0 °F - 39.2 °F 93% 29.87 in 4.0 mi Calm Calm - N/A   Overcast
5:35 AM 41.0 °F - 41.0 °F 100% 29.87 in 7.0 mi Calm Calm - N/A   Overcast
5:55 AM 41.0 °F - 41.0 °F 100% 29.87 in 5.0 mi Calm Calm - N/A   Overcast
6:15 AM 41.0 °F - 41.0 °F 100% 29.87 in 2.5 mi Calm Calm - N/A   Overcast
6:55 AM 41.0 °F - 41.0 °F 100% 29.87 in 3.0 mi Calm Calm - N/A   Overcast
7:15 AM 41.0 °F - 41.0 °F 100% 29.88 in 1.5 mi Calm Calm - N/A   Overcast
7:35 AM 41.0 °F - 41.0 °F 100% 29.88 in 2.0 mi Calm Calm - N/A   Overcast
7:55 AM 41.0 °F - 41.0 °F 100% 29.89 in 1.2 mi Calm Calm - N/A   Overcast
8:15 AM 41.0 °F - 41.0 °F 100% 29.90 in 1.2 mi Calm Calm - N/A   Overcast
8:35 AM 41.0 °F - 41.0 °F 100% 29.90 in 2.5 mi Calm Calm - N/A   Overcast
8:55 AM 41.0 °F - 41.0 °F 100% 29.91 in 3.0 mi Calm Calm - N/A   Overcast
9:15 AM 41.0 °F - 41.0 °F 100% 29.91 in 4.0 mi Calm Calm - N/A   Overcast
9:35 AM 41.0 °F - 39.2 °F 93% 29.91 in 3.0 mi Calm Calm - N/A   Overcast
9:55 AM 42.8 °F - 41.0 °F 93% 29.91 in 4.0 mi Calm Calm - N/A   Overcast
10:15 AM 41.0 °F - 39.2 °F 93% 29.92 in 4.0 mi Calm Calm - N/A   Overcast
10:35 AM 41.0 °F - 39.2 °F 93% 29.92 in 4.0 mi Calm Calm - N/A   Overcast
10:55 AM 42.8 °F - 41.0 °F 93% 29.92 in 5.0 mi Calm Calm - N/A   Overcast
11:15 AM 42.8 °F - 41.0 °F 93% 29.92 in 7.0 mi Calm Calm - N/A   Overcast
11:35 AM 42.8 °F - 41.0 °F 93% 29.92 in 7.0 mi Calm Calm - N/A   Overcast
11:55 AM 42.8 °F - 39.2 °F 87% 29.92 in 7.0 mi Calm Calm - N/A   Overcast
12:15 PM 42.8 °F 40.1 °F 41.0 °F 93% 29.91 in 7.0 mi WNW 4.6 mph - N/A   Overcast
12:35 PM 42.8 °F - 41.0 °F 93% 29.91 in 7.0 mi Calm Calm - N/A   Overcast
12:55 PM 42.8 °F 41.1 °F 39.2 °F 87% 29.91 in 10.0 mi North 3.5 mph - N/A   Overcast
1:15 PM 44.6 °F 43.1 °F 39.2 °F 81% 29.91 in 10.0 mi NNW 3.5 mph - N/A   Overcast
1:35 PM 42.8 °F 40.1 °F 37.4 °F 81% 29.91 in 10.0 mi NNW 4.6 mph - N/A   Overcast
1:55 PM 44.6 °F - 37.4 °F 76% 29.91 in 10.0 mi Calm Calm - N/A   Overcast
2:15 PM 44.6 °F 42.2 °F 39.2 °F 81% 29.91 in 10.0 mi North 4.6 mph - N/A   Overcast
2:35 PM 42.8 °F - 37.4 °F 81% 29.91 in 10.0 mi Calm Calm - N/A   Overcast
2:55 PM 42.8 °F 41.1 °F 37.4 °F 81% 29.91 in 10.0 mi NNE 3.5 mph - N/A   Overcast
3:15 PM 42.8 °F 39.3 °F 39.2 °F 87% 29.91 in 10.0 mi NW 5.8 mph - N/A   Overcast
3:35 PM 44.6 °F - 37.4 °F 76% 29.92 in 10.0 mi Calm Calm - N/A   Overcast
3:55 PM 44.6 °F 42.2 °F 39.2 °F 81% 29.93 in 10.0 mi North 4.6 mph - N/A   Overcast
4:15 PM 44.6 °F 42.2 °F 39.2 °F 81% 29.93 in 10.0 mi NW 4.6 mph - N/A   Overcast
4:35 PM 44.6 °F 42.2 °F 37.4 °F 76% 29.94 in 10.0 mi NW 4.6 mph - N/A   Overcast
4:55 PM 42.8 °F 41.1 °F 39.2 °F 87% 29.95 in 10.0 mi WNW 3.5 mph - N/A   Overcast
5:15 PM 42.8 °F 40.1 °F 37.4 °F 81% 29.96 in 10.0 mi West 4.6 mph - N/A   Overcast
5:35 PM 42.8 °F 41.1 °F 37.4 °F 81% 29.97 in 10.0 mi West 3.5 mph - N/A   Overcast
6:15 PM 42.8 °F 41.1 °F 39.2 °F 87% 29.99 in 10.0 mi NE 3.5 mph - N/A   Overcast
6:35 PM 42.8 °F 40.1 °F 37.4 °F 81% 29.99 in 10.0 mi West 4.6 mph - N/A   Overcast
6:55 PM 42.8 °F - 37.4 °F 81% 30.01 in 10.0 mi Calm Calm - N/A   Overcast
7:15 PM 42.8 °F 40.1 °F 37.4 °F 81% 30.01 in 10.0 mi WNW 4.6 mph - N/A   Mostly Cloudy
7:35 PM 42.8 °F 39.3 °F 37.4 °F 81% 30.02 in 10.0 mi NW 5.8 mph - N/A   Mostly Cloudy
7:55 PM 42.8 °F 38.6 °F 37.4 °F 81% 30.02 in 10.0 mi WNW 6.9 mph - N/A   Scattered Clouds
8:15 PM 42.8 °F 40.1 °F 37.4 °F 81% 30.03 in 10.0 mi WNW 4.6 mph - N/A   Clear
8:35 PM 41.0 °F 37.1 °F 37.4 °F 87% 30.03 in 10.0 mi NNW 5.8 mph - N/A   Clear
8:55 PM 41.0 °F 39.0 °F 37.4 °F 87% 30.04 in 10.0 mi WSW 3.5 mph - N/A   Clear
9:15 PM 39.2 °F 37.0 °F 37.4 °F 93% 30.05 in 10.0 mi WSW 3.5 mph - N/A   Clear
9:35 PM 39.2 °F 35.9 °F 37.4 °F 93% 30.05 in 10.0 mi West 4.6 mph - N/A   Scattered Clouds
9:55 PM 39.2 °F 35.9 °F 37.4 °F 93% 30.05 in 10.0 mi SW 4.6 mph - N/A   Mostly Cloudy
10:15 PM 39.2 °F 37.0 °F 37.4 °F 93% 30.05 in 7.0 mi SW 3.5 mph - N/A   Mostly Cloudy
10:35 PM 37.4 °F 34.9 °F 35.6 °F 93% 30.06 in 7.0 mi West 3.5 mph - N/A   Clear
10:55 PM 37.4 °F - 35.6 °F 93% 30.06 in 7.0 mi Calm Calm - N/A   Scattered Clouds
11:15 PM 37.4 °F 34.9 °F 35.6 °F 93% 30.06 in 5.0 mi West 3.5 mph - N/A   Mostly Cloudy
11:35 PM 37.4 °F 34.9 °F 35.6 °F 93% 30.06 in 5.0 mi West 3.5 mph - N/A   Scattered Clouds
11:55 PM 37.4 °F 34.9 °F 35.6 °F 93% 30.06 in 5.0 mi NNW 3.5 mph - N/A   Scattered Clouds